PWSweather.com
Personal Weather Stations
Station Observations
NOCONAWX
Sherman Street, Nocona, TX 76255

Sherman StreetNocona, TX 76255

Lat: 33.7851771, Lon: -97.7248693

Elevation: 981

Station Type: Davis 6152

http://www.noconaweather.com

Latest ConditionsUpdated 12:30:01 PM CDT Thursday, Jul 31, 2014
Currently Today's Max Today's Min Today's Average
Temperature 72.0°F22.2°C 72.4°F22.4°C 67.3°F19.6°C 70.3°F21.3°C
Dew Point 67.2°F19.6°C 71.9°F22.2°C 66.2°F19.0°C 69.3°F20.7°C
Winds 6.0 mph SSE9.7 kmh SSE 6.0 mph S9.7 kmh S - 2.5 mph 4.0 kmh
Wind Gusts 11.0 mph17.7 kmh 15.0 mph24.1 kmh - -
Humidity 85% 100% 85% 97%
Pressure 29.99 in1015.6 mb 29.99 in1015.6 mb 29.90 in1012.5 mb -
Precipitation - 1.16 in29.5 mm - -
Hour Temp Dew Point Humidity Winds Wind Gusts Pressure Precip Precip Rate Daily Precip Total
12:30 PM 72.0°F22.2°C 67.2°F19.6°C 85% 6.0 mph SSE9.7 kmh SSE 11.0 mph17.7 kmh 29.99 in1015.6 mb 0.00 in0.0 mm 0.00 in/hr0.0 mm/hr 1.16 in29.5 mm
12:15 PM 71.9°F22.2°C 67.5°F19.7°C 86% 5.0 mph SSE8.0 kmh SSE 8.0 mph12.9 kmh 29.99 in1015.6 mb 0.00 in0.0 mm 0.00 in/hr0.0 mm/hr 1.16 in29.5 mm
12:00 PM 71.7°F22.1°C 67.6°F19.8°C 87% 6.0 mph SSE9.7 kmh SSE 11.0 mph17.7 kmh 29.99 in1015.6 mb 0.00 in0.0 mm 0.00 in/hr0.0 mm/hr 1.16 in29.5 mm
11:45 AM 71.1°F21.7°C 67.0°F19.4°C 87% 5.0 mph SSE8.0 kmh SSE 13.0 mph20.9 kmh 29.99 in1015.6 mb 0.00 in0.0 mm 0.00 in/hr0.0 mm/hr 1.16 in29.5 mm
11:30 AM 70.2°F21.2°C 66.8°F19.3°C 89% 6.0 mph S9.7 kmh S 10.0 mph16.1 kmh 29.99 in1015.6 mb 0.00 in0.0 mm 0.00 in/hr0.0 mm/hr 1.16 in29.5 mm
11:15 AM 70.0°F21.1°C 66.9°F19.4°C 90% 5.0 mph SSE8.0 kmh SSE 6.0 mph9.7 kmh 29.98 in1015.2 mb 0.00 in0.0 mm 0.00 in/hr0.0 mm/hr 1.16 in29.5 mm
11:00 AM 70.0°F21.1°C 66.9°F19.4°C 90% 5.0 mph S8.0 kmh S 11.0 mph17.7 kmh 29.98 in1015.2 mb 0.00 in0.0 mm 0.00 in/hr0.0 mm/hr 1.16 in29.5 mm
10:45 AM 69.6°F20.9°C 66.9°F19.4°C 91% 4.0 mph SSE6.4 kmh SSE 8.0 mph12.9 kmh 29.98 in1015.2 mb 0.00 in0.0 mm 0.00 in/hr0.0 mm/hr 1.16 in29.5 mm
10:30 AM 69.3°F20.7°C 66.9°F19.4°C 92% 5.0 mph SSE8.0 kmh SSE 10.0 mph16.1 kmh 29.98 in1015.2 mb 0.00 in0.0 mm 0.00 in/hr0.0 mm/hr 1.16 in29.5 mm
10:15 AM 68.8°F20.4°C 66.7°F19.3°C 93% 4.0 mph SSE6.4 kmh SSE 8.0 mph12.9 kmh 29.98 in1015.2 mb 0.00 in0.0 mm 0.00 in/hr0.0 mm/hr 1.16 in29.5 mm
10:00 AM 68.3°F20.2°C 66.8°F19.3°C 95% 3.0 mph S4.8 kmh S 8.0 mph12.9 kmh 29.98 in1015.2 mb 0.00 in0.0 mm 0.00 in/hr0.0 mm/hr 1.16 in29.5 mm
09:45 AM 67.6°F19.8°C 66.4°F19.1°C 96% 4.0 mph S6.4 kmh S 9.0 mph14.5 kmh 29.98 in1015.2 mb 0.00 in0.0 mm 0.00 in/hr0.0 mm/hr 1.16 in29.5 mm
09:30 AM 67.4°F19.7°C 66.2°F19.0°C 96% 4.0 mph S6.4 kmh S 6.0 mph9.7 kmh 29.97 in1014.9 mb 0.00 in0.0 mm 0.00 in/hr0.0 mm/hr 1.16 in29.5 mm
09:15 AM 67.3°F19.6°C 66.4°F19.1°C 97% 3.0 mph S4.8 kmh S 6.0 mph9.7 kmh 29.97 in1014.9 mb 0.00 in0.0 mm 0.00 in/hr0.0 mm/hr 1.16 in29.5 mm
09:00 AM 67.5°F19.7°C 66.6°F19.2°C 97% 2.0 mph S3.2 kmh S 10.0 mph16.1 kmh 29.97 in1014.9 mb 0.00 in0.0 mm 0.00 in/hr0.0 mm/hr 1.16 in29.5 mm
08:45 AM 67.4°F19.7°C 66.5°F19.2°C 97% 2.0 mph SSE3.2 kmh SSE 5.0 mph8.0 kmh 29.96 in1014.6 mb 0.00 in0.0 mm 0.00 in/hr0.0 mm/hr 1.16 in29.5 mm
08:30 AM 67.4°F19.7°C 67.4°F19.7°C 100% 2.0 mph S3.2 kmh S 6.0 mph9.7 kmh 29.96 in1014.6 mb 0.00 in0.0 mm 0.00 in/hr0.0 mm/hr 1.16 in29.5 mm
08:15 AM 67.3°F19.6°C 67.3°F19.6°C 100% 3.0 mph S4.8 kmh S 6.0 mph9.7 kmh 29.96 in1014.6 mb 0.00 in0.0 mm 0.00 in/hr0.0 mm/hr 1.16 in29.5 mm
08:00 AM 67.4°F19.7°C 67.4°F19.7°C 100% 4.0 mph S6.4 kmh S 8.0 mph12.9 kmh 29.95 in1014.2 mb 0.00 in0.0 mm 0.00 in/hr0.0 mm/hr 1.16 in29.5 mm
07:45 AM 67.6°F19.8°C 67.6°F19.8°C 100% 3.0 mph S4.8 kmh S 7.0 mph11.3 kmh 29.95 in1014.2 mb 0.00 in0.0 mm 0.00 in/hr0.0 mm/hr 1.16 in29.5 mm
07:30 AM 67.8°F19.9°C 67.8°F19.9°C 100% 3.0 mph S4.8 kmh S 7.0 mph11.3 kmh 29.94 in1013.9 mb 0.00 in0.0 mm 0.00 in/hr0.0 mm/hr 1.16 in29.5 mm
07:15 AM 68.1°F20.1°C 68.1°F20.1°C 100% 2.0 mph S3.2 kmh S 8.0 mph12.9 kmh 29.94 in1013.9 mb 0.00 in0.0 mm 0.00 in/hr0.0 mm/hr 1.16 in29.5 mm
07:00 AM 68.4°F20.2°C 68.4°F20.2°C 100% 3.0 mph SW4.8 kmh SW 5.0 mph8.0 kmh 29.93 in1013.5 mb 0.01 in0.3 mm 0.00 in/hr0.0 mm/hr 1.16 in29.5 mm
06:45 AM 68.8°F20.4°C 68.8°F20.4°C 100% 3.0 mph S4.8 kmh S 6.0 mph9.7 kmh 29.93 in1013.5 mb 0.01 in0.3 mm 0.00 in/hr0.0 mm/hr 1.16 in29.5 mm
06:30 AM 69.3°F20.7°C 69.3°F20.7°C 100% 3.0 mph S4.8 kmh S 5.0 mph8.0 kmh 29.93 in1013.5 mb 0.01 in0.3 mm 0.00 in/hr0.0 mm/hr 1.16 in29.5 mm
06:15 AM 69.7°F20.9°C 69.7°F20.9°C 100% 2.0 mph S3.2 kmh S 6.0 mph9.7 kmh 29.92 in1013.2 mb 0.01 in0.3 mm 0.04 in/hr1.0 mm/hr 1.16 in29.5 mm
06:00 AM 70.3°F21.3°C 69.4°F20.8°C 97% 2.0 mph S3.2 kmh S 5.0 mph8.0 kmh 29.92 in1013.2 mb 0.00 in0.0 mm 0.00 in/hr0.0 mm/hr 1.15 in29.2 mm
05:45 AM 71.0°F21.7°C 71.0°F21.7°C 100% 1.0 mph S1.6 kmh S 5.0 mph8.0 kmh 29.92 in1013.2 mb 0.04 in1.0 mm 0.00 in/hr0.0 mm/hr 1.15 in29.2 mm
05:30 AM 71.6°F22.0°C 71.6°F22.0°C 100% 2.0 mph SW3.2 kmh SW 4.0 mph6.4 kmh 29.91 in1012.9 mb 0.05 in1.3 mm 0.00 in/hr0.0 mm/hr 1.15 in29.2 mm
05:15 AM 71.9°F22.2°C 71.9°F22.2°C 100% 1.0 mph SSE1.6 kmh SSE 2.0 mph3.2 kmh 29.91 in1012.9 mb 0.09 in2.3 mm 0.00 in/hr0.0 mm/hr 1.15 in29.2 mm
05:00 AM 71.8°F22.1°C 71.8°F22.1°C 100% Calm Calm 1.0 mph1.6 kmh 29.91 in1012.9 mb 0.09 in2.3 mm 0.05 in/hr1.3 mm/hr 1.15 in29.2 mm
04:45 AM 71.8°F22.1°C 71.8°F22.1°C 100% Calm Calm 1.0 mph1.6 kmh 29.91 in1012.9 mb 0.05 in1.3 mm 0.04 in/hr1.0 mm/hr 1.11 in28.2 mm
04:30 AM 71.8°F22.1°C 71.8°F22.1°C 100% Calm Calm 1.0 mph1.6 kmh 29.91 in1012.9 mb 0.04 in1.0 mm 0.16 in/hr4.1 mm/hr 1.10 in27.9 mm
04:15 AM 71.7°F22.1°C 71.7°F22.1°C 100% 1.0 mph SE1.6 kmh SE 1.0 mph1.6 kmh 29.91 in1012.9 mb 0.00 in0.0 mm 0.00 in/hr0.0 mm/hr 1.06 in26.9 mm
04:00 AM 71.7°F22.1°C 71.7°F22.1°C 100% Calm Calm 2.0 mph3.2 kmh 29.90 in1012.5 mb 0.00 in0.0 mm 0.00 in/hr0.0 mm/hr 1.06 in26.9 mm
03:45 AM 71.7°F22.1°C 71.7°F22.1°C 100% 1.0 mph SSE1.6 kmh SSE 4.0 mph6.4 kmh 29.90 in1012.5 mb 0.00 in0.0 mm 0.00 in/hr0.0 mm/hr 1.06 in26.9 mm
03:30 AM 71.7°F22.1°C 71.7°F22.1°C 100% 1.0 mph SE1.6 kmh SE 5.0 mph8.0 kmh 29.90 in1012.5 mb 0.00 in0.0 mm 0.00 in/hr0.0 mm/hr 1.06 in26.9 mm
03:15 AM 71.6°F22.0°C 71.6°F22.0°C 100% 1.0 mph SSE1.6 kmh SSE 1.0 mph1.6 kmh 29.90 in1012.5 mb 0.00 in0.0 mm 0.00 in/hr0.0 mm/hr 1.06 in26.9 mm
03:00 AM 71.6°F22.0°C 71.6°F22.0°C 100% 1.0 mph SSE1.6 kmh SSE 2.0 mph3.2 kmh 29.91 in1012.9 mb 0.00 in0.0 mm 0.00 in/hr0.0 mm/hr 1.06 in26.9 mm
02:45 AM 71.7°F22.1°C 70.8°F21.6°C 97% 1.0 mph SSE1.6 kmh SSE 3.0 mph4.8 kmh 29.91 in1012.9 mb 0.02 in0.5 mm 0.00 in/hr0.0 mm/hr 1.06 in26.9 mm
02:30 AM 71.8°F22.1°C 70.9°F21.6°C 97% 1.0 mph SE1.6 kmh SE 3.0 mph4.8 kmh 29.91 in1012.9 mb 0.08 in2.0 mm 0.00 in/hr0.0 mm/hr 1.06 in26.9 mm
02:15 AM 72.0°F22.2°C 71.1°F21.7°C 97% 1.0 mph SE1.6 kmh SE 2.0 mph3.2 kmh 29.92 in1013.2 mb 0.08 in2.0 mm 0.00 in/hr0.0 mm/hr 1.06 in26.9 mm
02:00 AM 72.0°F22.2°C 71.1°F21.7°C 97% Calm Calm 1.0 mph1.6 kmh 29.91 in1012.9 mb 0.11 in2.8 mm 0.00 in/hr0.0 mm/hr 1.06 in26.9 mm
01:45 AM 72.0°F22.2°C 71.1°F21.7°C 97% Calm Calm 1.0 mph1.6 kmh 29.92 in1013.2 mb 0.47 in11.9 mm 0.00 in/hr0.0 mm/hr 1.04 in26.4 mm
01:30 AM 71.9°F22.2°C 71.0°F21.7°C 97% 1.0 mph 1.6 kmh -- 29.92 in1013.2 mb 0.59 in15.0 mm 0.00 in/hr0.0 mm/hr 0.98 in24.9 mm
01:15 AM 71.9°F22.2°C 71.0°F21.7°C 97% 2.0 mph WSW3.2 kmh WSW 1.0 mph1.6 kmh 29.92 in1013.2 mb 0.60 in15.2 mm 0.00 in/hr0.0 mm/hr 0.98 in24.9 mm
01:00 AM 71.9°F22.2°C 71.0°F21.7°C 97% 4.0 mph WSW6.4 kmh WSW 7.0 mph11.3 kmh 29.91 in1012.9 mb 0.95 in24.1 mm 0.04 in/hr1.0 mm/hr 0.95 in24.1 mm
12:45 AM 72.1°F22.3°C 71.2°F21.8°C 97% 3.0 mph S4.8 kmh S 9.0 mph14.5 kmh 29.93 in1013.5 mb 0.92 in23.4 mm 0.44 in/hr11.2 mm/hr 0.53 in13.5 mm
12:30 AM 72.1°F22.3°C 71.2°F21.8°C 97% Calm Calm 4.0 mph6.4 kmh 29.92 in1013.2 mb 0.81 in20.6 mm 0.00 in/hr0.0 mm/hr 0.39 in9.9 mm
12:15 AM 72.2°F22.3°C 71.3°F21.8°C 97% 2.0 mph SSW3.2 kmh SSW 3.0 mph4.8 kmh 29.92 in1013.2 mb 0.84 in21.3 mm 0.00 in/hr0.0 mm/hr 0.37 in9.4 mm
12:00 AM 72.4°F22.4°C 71.2°F21.8°C 96% 4.0 mph SW6.4 kmh SW 15.0 mph24.1 kmh 29.92 in1013.2 mb 1.10 in27.9 mm 0.00 in/hr0.0 mm/hr 2.09 in53.1 mm